Temperature
28 28 28 29 30 30 31 31 31 31 33 32 31 32 32 32 32 31 30 29 28 27 26 25 24 23 22 21 21 21 20 20 19 19 18 18 18 18 17 17 17 17 17 17
29 28 30 31 31 31 31 30 30 31 32 32 31 31 32 32 31 31 30 29 28 27 26 25 24 23 22 21 21 20 20 20 19 19 18 18 18 18 17 17 17 17 17 17
28 30 31 31 31 30 30 30 30 31 31 31 31 30 31 32 31 30 30 29 28 27 26 25 24 23 22 21 21 20 20 19 19 18 18 18 18 18 17 17 17 17 17 17
29 31 31 31 30 30 30 31 31 31 30 30 30 28 29 30 30 30 30 29 28 27 26 25 23 22 22 21 20 20 20 19 19 18 18 18 18 17 17 17 17 17 17 17
29 31 31 30 31 31 31 32 31 30 29 29 29 28 28 30 29 29 30 29 28 27 26 25 23 22 22 21 20 20 19 19 19 19 18 18 18 17 17 17 17 17 17 17
30 31 31 31 31 31 31 31 30 30 29 27 28 27 27 29 29 29 29 29 28 27 26 24 23 22 21 21 20 19 19 19 19 19 18 18 18 17 17 17 17 17 17 17
28 30 31 31 30 30 30 29 27 27 27 27 28 27 27 28 29 29 29 28 27 26 25 24 23 22 21 21 20 19 19 19 18 18 18 18 18 17 17 17 17 17 17 17
27 28 30 31 30 29 29 29 27 26 25 26 27 26 27 28 28 28 28 27 26 25 25 24 23 22 21 20 19 19 18 18 18 18 18 18 17 17 17 17 17 16 16 17
27 28 30 30 31 30 29 29 29 28 27 26 26 26 27 27 27 27 27 26 26 25 24 23 23 22 21 20 19 18 18 18 18 18 18 17 17 17 17 17 16 16 16 16
28 27 29 30 30 30 30 29 29 27 25 25 26 26 26 25 25 26 26 26 25 24 23 23 22 21 21 20 19 18 18 18 18 17 17 17 17 17 17 17 16 16 16 16
28 26 27 28 28 28 28 28 28 27 27 25 25 25 26 25 25 26 26 25 25 24 23 23 22 21 20 20 19 18 18 17 17 17 17 17 17 17 16 16 16 16 16 16
27 26 25 26 28 29 29 28 27 26 25 26 25 24 26 25 25 25 25 25 24 23 23 22 22 21 20 19 19 18 18 17 17 17 16 16 16 16 16 16 16 15 15 15
25 24 23 25 26 27 27 28 27 26 25 25 25 24 25 25 24 24 24 24 23 23 22 22 21 20 20 19 18 18 17 17 16 16 16 16 15 15 15 15 15 15 15 15
24 23 23 23 24 25 25 26 27 26 24 24 24 24 23 24 24 24 23 23 22 22 21 21 20 20 19 19 18 17 17 17 16 16 15 15 15 15 15 15 15 15 14 14
24 23 23 24 25 25 25 25 25 25 25 24 24 24 24 24 24 23 23 23 22 21 21 20 19 19 19 18 17 17 17 16 16 15 15 15 14 14 14 14 14 14 14 14
23 22 22 23 24 25 24 25 25 25 25 24 24 24 24 24 23 23 22 22 21 21 20 19 19 18 18 17 17 17 16 16 15 15 14 14 14 14 14 14 14 14 13 13
22 21 21 21 23 23 22 23 24 24 24 24 23 23 24 23 23 22 21 21 20 19 19 18 17 17 17 17 16 16 16 15 15 15 14 14 14 14 14 14 13 13 13 13
21 20 20 21 21 20 22 23 24 24 23 23 23 23 23 22 21 20 19 19 19 18 18 17 17 16 16 16 16 15 15 15 15 14 14 14 14 14 13 13 13 13 13 13
22 20 20 20 20 21 21 23 23 22 22 22 22 22 21 20 20 19 19 18 17 17 17 16 16 15 15 15 15 15 15 15 14 14 14 14 14 14 13 13 13 13 13 13
22 21 20 19 19 19 20 22 23 23 21 21 21 20 20 20 19 19 18 17 17 16 16 16 15 15 15 15 15 15 15 14 14 14 14 14 14 13 13 13 13 13 13 13
20 19 19 19 19 19 20 21 22 20 19 19 19 19 19 19 18 17 17 17 16 16 15 15 15 14 14 14 14 14 14 14 14 14 14 14 13 13 13 13 13 12 12 12
19 19 18 19 18 18 19 19 18 18 18 19 18 18 18 17 17 16 16 16 15 15 15 15 14 14 14 14 14 14 13 13 14 14 13 13 13 13 13 13 13 12 12 12
18 18 17 17 17 17 17 17 17 17 17 18 17 17 16 16 16 16 15 15 15 14 14 14 14 13 13 13 13 13 13 13 13 13 13 13 13 13 13 12 12 12 12 12
18 17 16 16 16 17 17 17 17 17 17 17 16 16 16 16 16 15 15 14 14 14 13 13 13 13 13 13 13 13 13 13 13 13 12 12 12 12 12 12 12 12 12 12
16 16 16 15 16 16 15 16 16 16 16 16 16 16 15 15 15 15 14 14 13 13 13 12 12 12 12 13 12 12 12 12 12 12 12 12 12 12 12 12 12 12 12 12
16 15 15 15 15 15 15 15 15 15 15 15 15 15 15 14 14 14 14 13 13 13 12 12 12 12 12 12 12 12 12 12 12 12 12 12 12 12 12 12 12 12 12 12
Wind_Speed
15 15 16 16 17 18 18 18 17 14 11 12 13 13 10 9 9 8 8 8 9 10 9 9 9 10 10 9 9 9 8 7 6 5 5 5 5 5 4 4 6 7 6 6
16 19 20 18 18 18 18 19 18 15 12 12 13 15 11 10 9 7 7 8 9 9 10 10 10 10 10 10 9 9 9 8 7 5 4 4 4 4 4 3 5 6 6 6
20 18 17 18 19 18 17 17 17 16 14 15 14 15 11 9 8 8 8 8 8 10 10 10 9 9 9 9 9 10 9 9 8 6 4 3 3 3 3 5 5 6 6 5
19 19 17 16 17 17 17 16 16 16 15 14 12 12 10 8 8 9 9 8 7 7 8 10 10 9 8 7 8 8 9 9 8 7 6 7 6 5 4 4 5 6 6 6
18 17 17 17 15 15 17 15 15 16 17 16 13 12 10 7 6 6 7 7 7 7 8 8 9 10 8 8 7 7 8 8 8 8 7 7 5 5 4 4 5 5 6 6
21 19 17 16 15 16 16 16 16 16 15 17 13 12 11 7 5 5 6 6 6 6 7 7 7 8 7 7 7 5 6 7 8 8 8 8 7 6 5 5 5 5 4 5
19 19 17 15 16 15 16 13 11 13 12 13 9 10 7 4 2 1 2 5 6 5 5 7 7 8 7 7 7 6 6 5 6 6 7 7 7 7 6 6 5 5 4 4
16 15 14 14 14 14 14 15 13 12 12 12 10 10 6 4 1 2 2 5 4 4 4 5 6 7 7 8 7 6 6 5 5 5 5 5 6 5 4 4 3 4 3 4
13 14 11 11 12 14 15 15 15 14 17 15 10 8 6 1 2 1 1 2 5 4 4 4 5 6 7 7 6 6 6 5 5 5 5 5 6 5 4 4 4 3 2 3
12 14 14 12 12 14 15 15 11 13 13 14 13 10 5 1 2 3 3 1 3 5 5 5 5 6 6 6 6 5 5 5 5 4 4 4 4 4 4 3 3 3 2 2
12 12 15 13 13 15 15 15 12 10 12 13 13 8 2 2 1 1 2 2 3 4 5 4 4 5 6 6 6 5 5 4 4 4 4 3 4 4 3 3 3 3 3 3
8 8 13 15 15 16 15 14 12 11 12 13 13 7 2 3 1 2 1 3 4 4 3 4 4 4 4 5 5 5 5 4 4 3 3 3 3 3 3 3 3 3 3 3
6 6 11 13 11 12 13 13 13 11 10 12 13 7 2 1 1 2 2 3 3 3 3 3 3 3 3 4 4 4 4 4 4 3 2 3 3 2 2 2 2 3 3 3
6 10 12 15 13 12 14 15 13 11 10 12 12 8 6 3 1 1 1 3 2 3 3 3 3 3 3 3 3 3 3 3 3 3 2 2 2 2 2 3 3 2 3 3
7 12 15 17 17 16 17 17 14 12 13 13 10 8 6 4 2 1 0 1 2 2 3 2 2 2 3 2 2 2 3 2 2 2 2 2 2 2 2 3 2 2 3 3
6 10 14 17 16 16 17 16 15 13 11 11 10 7 4 1 1 1 2 2 1 2 2 2 2 2 3 2 1 1 2 2 2 2 2 2 2 2 3 3 3 3 3 3
7 8 12 15 16 15 15 13 11 10 9 9 7 5 3 3 2 2 3 3 3 2 2 2 2 2 2 1 1 1 2 2 2 2 2 2 2 3 3 4 3 3 3 3
11 10 8 12 13 15 7 7 8 8 6 5 4 3 2 1 2 4 5 5 3 2 3 3 3 2 1 2 2 1 2 2 2 3 3 3 3 3 3 3 2 2 2 3
11 10 8 9 12 12 8 7 8 7 5 4 4 2 2 3 2 3 3 3 2 3 3 2 2 2 1 1 1 1 1 2 3 3 3 3 3 3 3 3 3 3 3 4
9 9 9 9 11 10 7 9 10 7 6 3 4 3 2 1 2 1 3 3 2 3 3 3 2 2 2 1 1 1 2 2 2 2 3 3 3 3 3 3 3 3 3 5
5 7 10 12 11 6 8 12 9 5 4 6 4 1 2 3 2 1 2 2 2 3 2 2 2 1 1 1 0 0 0 1 1 1 2 1 1 2 3 2 2 3 4 4
4 5 7 8 9 6 9 8 4 4 5 5 3 2 3 4 3 2 2 1 1 2 2 2 1 1 2 1 1 1 1 2 2 1 1 1 1 3 2 2 3 4 4 5
3 2 3 3 3 3 6 4 3 3 4 4 3 2 2 2 1 1 1 1 1 2 2 2 1 1 2 2 1 1 1 2 2 2 1 1 1 2 2 2 3 4 4 4
3 3 3 3 4 4 5 6 7 5 4 4 3 2 1 1 1 2 2 2 2 3 2 2 2 2 2 2 2 1 1 1 2 2 2 1 2 2 2 2 3 3 2 2
6 5 4 5 5 5 5 7 6 6 4 3 3 2 1 1 2 2 2 2 2 2 2 2 2 1 1 2 3 3 3 2 2 2 2 2 3 3 2 2 2 2 1 2
5 5 5 4 5 5 6 7 7 6 5 4 4 3 2 2 2 2 1 2 2 2 2 2 2 2 1 1 2 3 3 3 3 2 2 3 3 2 2 2 1 2 2 2
Wind_Direction
229 231 237 243 244 255 269 278 283 281 271 273 268 266 245 231 225 218 203 195 190 185 178 168 167 160 154 152 159 165 169 163 163 177 182 190 195 194 194 189 170 170 186 197
236 235 241 248 255 258 264 273 278 280 274 274 272 269 252 227 226 216 208 198 191 180 174 169 167 165 161 165 170 170 171 165 173 186 188 192 191 190 186 181 157 173 187 200
241 247 245 248 254 259 262 265 274 282 286 276 270 270 255 226 205 210 209 206 202 188 176 165 168 165 163 170 177 178 171 169 177 179 183 197 182 185 184 174 171 178 185 195
249 253 253 254 257 262 264 268 274 281 279 276 274 272 261 233 202 207 208 204 195 188 168 164 168 166 169 172 173 167 168 171 174 177 188 194 195 197 194 182 176 175 187 192
256 256 257 257 258 264 271 278 279 276 273 270 266 266 267 238 213 212 202 192 185 181 167 166 167 161 169 162 163 169 168 171 171 181 191 198 204 201 189 180 171 179 189 194
261 264 261 261 262 263 271 275 275 270 267 260 258 261 263 254 229 208 189 177 168 167 162 159 161 159 162 156 155 148 156 169 176 186 191 198 201 198 193 186 185 189 189 193
256 255 254 253 257 259 263 266 266 263 260 262 272 260 257 263 239 134 143 157 150 152 155 151 159 165 158 150 146 141 144 158 173 185 193 198 200 201 198 194 191 191 194 194
256 256 247 245 250 260 258 257 259 270 274 275 262 248 238 233 124 102 124 125 128 144 145 153 158 150 151 147 140 142 151 159 170 180 184 184 191 199 194 191 191 193 203 202
268 268 265 262 258 256 259 257 261 266 270 276 270 262 247 180 80 79 41 94 122 137 143 156 149 146 145 144 141 152 157 160 173 184 182 181 181 187 183 174 185 187 204 207
275 282 278 275 269 255 256 262 264 263 268 273 270 261 254 221 209 173 163 158 127 128 146 151 145 140 145 140 139 150 158 171 178 179 184 188 174 179 187 185 188 180 180 204
277 275 275 272 262 267 264 260 260 264 264 271 274 266 292 60 299 227 145 136 126 133 140 138 130 136 142 141 149 151 155 165 172 177 177 171 167 173 181 182 195 194 188 194
285 282 275 272 271 276 266 261 259 262 265 267 271 265 354 78 13 2 112 114 100 105 133 139 132 134 138 147 151 153 160 171 176 181 171 165 160 166 184 193 192 189 194 203
303 284 277 270 264 268 265 263 262 263 266 265 265 255 289 57 0 355 53 86 93 97 103 119 118 126 140 147 146 154 163 167 173 175 167 157 166 178 192 203 208 207 206 207
279 267 264 268 274 277 276 277 272 266 264 266 262 260 274 281 335 51 91 104 113 98 86 81 95 106 113 112 127 153 165 161 166 158 162 167 187 190 204 213 210 209 212 218
268 265 267 271 272 274 277 275 267 258 258 265 266 263 268 277 288 250 68 103 112 97 88 82 70 88 95 97 113 141 153 150 152 146 154 184 198 192 198 209 205 212 218 223
270 277 279 274 271 271 274 271 266 259 257 258 259 260 289 320 335 34 55 27 56 99 95 89 68 75 88 89 135 140 134 138 137 152 179 190 192 191 197 201 201 211 217 224
274 280 278 274 277 277 262 268 263 262 263 261 261 272 290 320 358 63 64 43 29 40 62 66 65 53 91 97 55 113 122 137 156 172 187 182 189 201 208 216 204 205 217 236
252 263 270 275 281 267 259 272 272 265 273 286 280 285 311 9 21 70 71 43 3 10 59 57 50 52 71 93 94 104 129 156 177 184 195 192 194 199 210 213 202 213 234 245
230 237 254 266 268 263 274 288 286 270 258 303 318 335 23 28 41 90 57 58 346 6 53 59 42 31 51 90 104 138 177 184 195 202 205 206 206 200 210 215 204 218 231 242
219 220 240 257 265 265 292 315 306 272 239 317 329 339 338 5 316 295 360 11 33 53 57 56 47 39 32 56 135 188 203 209 221 225 220 219 213 211 224 221 210 224 238 245
236 235 240 252 259 260 323 334 321 269 291 332 332 15 331 311 323 316 346 4 42 52 60 71 82 63 30 20 133 161 10 307 300 283 248 233 219 234 232 222 218 235 244 252
272 259 253 257 256 261 348 343 344 331 332 321 349 20 17 22 33 19 26 14 55 66 57 68 81 66 45 30 81 53 359 337 334 315 292 254 229 251 238 219 233 245 252 256
272 293 297 283 270 340 345 344 352 359 341 357 14 24 38 25 350 350 38 20 66 68 55 54 73 77 49 31 35 29 358 346 339 338 320 293 267 267 251 240 246 250 245 260
288 324 295 301 298 327 333 351 4 0 356 350 354 356 15 8 353 20 62 59 65 69 60 50 55 64 35 14 18 9 352 344 341 324 307 282 265 263 254 256 264 264 263 267
316 317 295 272 284 303 337 343 350 343 335 340 350 9 30 20 4 3 71 80 80 76 59 46 33 39 26 9 11 6 10 352 318 301 288 275 270 265 248 244 269 271 269 242
309 309 307 308 320 318 322 335 336 329 344 358 4 22 36 24 12 25 78 82 83 77 60 41 17 13 28 26 11 13 11 353 324 303 293 289 287 282 273 254 275 319 255 215
Height
1471 1472 1470 1465 1460 1457 1455 1455 1454 1447 1440 1442 1444 1443 1442 1442 1445 1448 1451 1455 1459 1463 1467 1470 1473 1476 1478 1480 1482 1484 1487 1489 1492 1494 1496 1498 1500 1501 1504 1505 1506 1507 1508 1510
1467 1466 1459 1455 1452 1451 1453 1455 1452 1444 1437 1440 1442 1440 1436 1438 1441 1445 1448 1452 1456 1460 1464 1467 1471 1474 1476 1478 1480 1482 1484 1486 1489 1491 1493 1496 1498 1499 1501 1503 1504 1505 1506 1507
1462 1454 1449 1450 1450 1451 1450 1452 1450 1447 1440 1437 1441 1444 1437 1434 1438 1442 1445 1449 1452 1456 1460 1464 1468 1471 1474 1476 1478 1480 1481 1483 1486 1488 1491 1494 1496 1497 1499 1500 1501 1502 1503 1505
1452 1447 1445 1446 1448 1447 1451 1442 1442 1444 1448 1449 1446 1459 1442 1434 1435 1438 1442 1445 1449 1453 1457 1461 1465 1468 1472 1474 1475 1477 1478 1480 1483 1486 1488 1490 1492 1494 1496 1497 1499 1500 1501 1503
1449 1443 1443 1445 1443 1442 1443 1437 1439 1441 1445 1449 1447 1455 1447 1433 1437 1437 1438 1442 1446 1450 1454 1458 1462 1466 1469 1471 1472 1474 1475 1477 1480 1482 1485 1487 1490 1492 1494 1495 1496 1498 1499 1500
1443 1439 1437 1438 1437 1437 1436 1438 1439 1439 1443 1457 1448 1454 1452 1437 1435 1434 1435 1439 1444 1448 1451 1455 1459 1463 1466 1469 1470 1471 1473 1475 1477 1480 1482 1484 1486 1488 1491 1492 1493 1495 1496 1497
1445 1438 1434 1435 1438 1436 1437 1448 1460 1462 1462 1457 1442 1449 1449 1435 1430 1432 1434 1437 1442 1447 1450 1453 1457 1460 1463 1466 1468 1470 1471 1473 1475 1477 1479 1481 1484 1486 1487 1489 1491 1492 1493 1494
1450 1446 1433 1430 1435 1439 1437 1443 1461 1471 1469 1457 1445 1448 1440 1430 1431 1433 1435 1438 1442 1445 1449 1452 1455 1458 1461 1464 1466 1468 1470 1471 1473 1475 1476 1478 1480 1483 1484 1486 1488 1489 1491 1492
1444 1442 1427 1426 1427 1431 1437 1437 1434 1447 1451 1455 1449 1441 1433 1430 1432 1433 1436 1439 1442 1445 1448 1451 1455 1457 1460 1463 1465 1467 1468 1470 1472 1473 1475 1476 1478 1480 1482 1483 1484 1486 1487 1489
1439 1445 1432 1426 1427 1426 1428 1430 1436 1445 1459 1462 1452 1447 1444 1438 1437 1434 1436 1439 1442 1444 1448 1451 1454 1456 1459 1462 1464 1466 1467 1469 1470 1471 1473 1474 1475 1477 1479 1480 1481 1483 1484 1485
1437 1445 1439 1432 1433 1433 1431 1432 1434 1438 1442 1455 1460 1453 1434 1437 1435 1435 1436 1439 1442 1444 1447 1450 1453 1456 1458 1460 1463 1465 1466 1467 1468 1469 1471 1472 1473 1474 1476 1477 1478 1480 1481 1483
1439 1442 1446 1437 1427 1424 1425 1429 1434 1448 1448 1442 1449 1452 1433 1434 1435 1437 1438 1439 1442 1445 1447 1450 1453 1455 1457 1459 1461 1463 1464 1466 1467 1468 1469 1470 1471 1473 1474 1475 1476 1477 1478 1479
1443 1448 1455 1448 1440 1431 1429 1427 1428 1433 1440 1444 1449 1451 1434 1435 1436 1437 1438 1440 1443 1445 1447 1450 1452 1454 1456 1458 1460 1461 1463 1464 1466 1467 1467 1468 1469 1470 1471 1472 1473 1475 1476 1477
1445 1448 1454 1457 1447 1438 1436 1431 1427 1433 1443 1445 1443 1443 1437 1434 1436 1438 1439 1441 1444 1445 1447 1449 1451 1453 1455 1457 1458 1460 1461 1463 1464 1465 1465 1466 1468 1468 1469 1470 1471 1472 1473 1474
1445 1448 1444 1440 1434 1432 1432 1431 1429 1432 1434 1440 1438 1437 1435 1435 1436 1438 1439 1441 1443 1445 1446 1448 1451 1452 1454 1455 1457 1458 1459 1461 1462 1463 1464 1464 1466 1466 1467 1468 1469 1470 1471 1471
1444 1448 1445 1442 1434 1431 1432 1428 1427 1428 1429 1432 1433 1435 1432 1433 1436 1437 1439 1442 1443 1445 1446 1448 1450 1451 1452 1454 1455 1456 1457 1459 1460 1461 1462 1463 1464 1464 1465 1466 1467 1468 1469 1469
1446 1450 1452 1447 1436 1433 1439 1431 1428 1428 1427 1429 1434 1434 1432 1434 1436 1439 1441 1443 1445 1446 1447 1448 1449 1450 1451 1453 1454 1455 1456 1457 1459 1460 1461 1461 1462 1463 1464 1465 1466 1466 1466 1467
1446 1450 1451 1446 1445 1451 1436 1425 1424 1425 1426 1427 1429 1431 1433 1436 1438 1441 1443 1445 1447 1447 1447 1448 1449 1449 1450 1452 1453 1454 1455 1456 1457 1458 1459 1460 1460 1461 1462 1463 1463 1464 1464 1464
1439 1446 1450 1448 1448 1441 1433 1427 1426 1427 1431 1430 1431 1432 1434 1437 1438 1441 1444 1446 1448 1447 1447 1448 1449 1449 1449 1450 1451 1453 1454 1455 1456 1456 1457 1458 1459 1460 1461 1461 1461 1461 1462 1462
1433 1439 1446 1447 1451 1448 1439 1426 1423 1424 1432 1432 1432 1434 1436 1437 1440 1442 1444 1446 1445 1445 1447 1448 1448 1448 1448 1449 1450 1451 1452 1453 1454 1455 1456 1457 1457 1458 1458 1459 1459 1459 1459 1459
1438 1441 1443 1444 1445 1442 1435 1429 1426 1436 1439 1434 1434 1435 1437 1438 1440 1442 1443 1444 1444 1445 1445 1446 1447 1447 1448 1448 1449 1449 1450 1451 1452 1453 1454 1454 1455 1456 1456 1456 1457 1457 1457 1457
1440 1443 1444 1443 1446 1448 1438 1434 1438 1439 1437 1435 1434 1436 1437 1438 1439 1441 1441 1442 1443 1443 1444 1445 1446 1446 1447 1447 1448 1448 1449 1450 1450 1451 1451 1452 1453 1453 1454 1454 1454 1454 1454 1454
1441 1444 1445 1446 1447 1443 1441 1440 1440 1438 1437 1435 1436 1436 1437 1438 1440 1441 1442 1442 1442 1443 1444 1445 1446 1446 1446 1446 1447 1447 1448 1448 1449 1449 1449 1450 1450 1451 1451 1451 1451 1452 1452 1451
1443 1443 1445 1447 1443 1442 1441 1440 1439 1439 1437 1437 1437 1437 1437 1438 1439 1441 1441 1442 1443 1443 1444 1445 1445 1445 1445 1445 1446 1446 1446 1447 1447 1447 1447 1448 1448 1449 1449 1449 1449 1449 1449 1448
1447 1446 1446 1447 1445 1443 1442 1442 1441 1439 1438 1437 1437 1437 1438 1438 1439 1440 1441 1441 1442 1443 1444 1444 1444 1444 1444 1444 1444 1444 1445 1445 1446 1446 1446 1446 1446 1446 1446 1446 1446 1446 1445 1445
1449 1449 1448 1448 1447 1446 1444 1442 1441 1440 1438 1437 1436 1436 1437 1438 1438 1439 1440 1441 1442 1443 1443 1444 1444 1444 1444 1443 1443 1443 1444 1444 1444 1445 1445 1445 1445 1444 1444 1443 1443 1443 1443 1443